Weather History for KTSP - December, 2011

Change the Weather History Date:

Tuesday, December 27, 2011

  Actual Average Record
Temperature  
Mean Temperature 41 °F -  
Max Temperature 59 °F 49 °F 64 °F (2013)
Min Temperature 23 °F 28 °F 23 °F (2011)
Degree Days  
Heating Degree Days 24    
Moisture  
Dew Point 10 °F    
Average Humidity 33    
Maximum Humidity 64    
Minimum Humidity 14    
Precipitation  
Precipitation 0.00 in - - ()
Sea Level Pressure  
Sea Level Pressure 30.30 in    
Wind  
Wind Speed 3 mph (WNW)    
Max Wind Speed 16 mph    
Max Gust Speed 17 mph    
Visibility 8 miles    
Events      
Averages and records for this station are not official NWS values.
T = Trace of Precipitation, MM = Missing Value Source: NWS Daily Summary

Daily Weather History Graph

Daily Weather History Graph

Search for Another Location

Airport or City:

Trip Planner

Search our weather history database for the weather conditions in past years. The results will help you decide how hot, cold, wet, or windy it might be!

Date:

Astronomy

Dec. 27, 2011 Rise Set
Actual Time 7:00 AM PST 4:48 PM PST
Civil Twilight 6:32 AM PST 5:17 PM PST
Nautical Twilight 6:00 AM PST 5:48 PM PST
Astronomical Twilight 5:29 AM PST 6:19 PM PST
Moon 9:05 AM PST (12/27) 8:19 PM PST (12/27)
Length of Visible Light 10h 44m
Length of Day
9h 48m
Waxing Crescent, 11% of the Moon is Illuminated
Dec 27
Waxing Crescent
Dec 31
First Quarter
Jan 8
Full
Jan 16
Last Quarter
Jan 22
New

Hourly Weather History & Observations

Time (PST) Temp. Windchill Dew Point Humidity Pressure Visibility Wind Dir Wind Speed Gust Speed Precip Events Conditions
12:15 AM 39.2 °F - -0.4 °F 19% 30.30 in 10.0 mi Calm Calm - N/A   Clear
12:35 AM 41.0 °F 39.0 °F -0.4 °F 18% 30.30 in 10.0 mi NW 3.5 mph - N/A   Clear
12:55 AM 39.2 °F - -0.4 °F 19% 30.29 in 10.0 mi Calm Calm - N/A   Clear
1:15 AM 32.0 °F - 1.4 °F 27% 30.29 in 10.0 mi Calm Calm - N/A   Clear
1:35 AM 26.6 °F 21.2 °F 1.4 °F 34% 30.29 in 10.0 mi SE 4.6 mph - N/A   Clear
1:55 AM 28.4 °F 24.6 °F 1.4 °F 31% 30.28 in 10.0 mi East 3.5 mph - N/A   Clear
2:35 AM 23.0 °F - 3.2 °F 43% 30.28 in 10.0 mi Calm Calm - N/A   Clear
2:55 AM 23.0 °F - 3.2 °F 43% 30.28 in 10.0 mi Calm Calm - N/A   Clear
3:15 AM 23.0 °F - 5.0 °F 46% 30.28 in 10.0 mi Calm Calm - N/A   Clear
3:35 AM 23.0 °F 15.8 °F 5.0 °F 46% 30.29 in 10.0 mi West 5.8 mph - N/A   Clear
3:55 AM 35.6 °F 31.7 °F 1.4 °F 24% 30.28 in 10.0 mi West 4.6 mph - N/A   Clear
4:35 AM 32.0 °F 28.7 °F 1.4 °F 27% 30.27 in 10.0 mi West 3.5 mph - N/A   Clear
4:55 AM 32.0 °F 28.7 °F 1.4 °F 27% 30.27 in 10.0 mi West 3.5 mph - N/A   Clear
5:15 AM 35.6 °F 31.7 °F 1.4 °F 24% 30.27 in 10.0 mi West 4.6 mph - N/A   Clear
5:35 AM 33.8 °F 29.6 °F 3.2 °F 28% 30.28 in 10.0 mi West 4.6 mph - N/A   Clear
5:55 AM 32.0 °F 24.8 °F 3.2 °F 30% 30.29 in 10.0 mi NNW 8.1 mph - N/A   Clear
6:15 AM 35.6 °F 31.7 °F 5.0 °F 28% 30.29 in 10.0 mi West 4.6 mph - N/A   Clear
6:35 AM 32.0 °F 27.5 °F 5.0 °F 32% 30.28 in 10.0 mi WNW 4.6 mph - N/A   Clear
7:35 AM 32.0 °F - 8.6 °F 38% 30.29 in 6.0 mi Calm Calm - N/A   Haze
7:55 AM 32.0 °F - 10.4 °F 41% 30.29 in 7.0 mi Calm Calm - N/A   Clear
8:15 AM 37.4 °F - 10.4 °F 33% 30.29 in 6.0 mi Calm Calm - N/A   Haze
8:35 AM 42.8 °F - 8.6 °F 25% 30.30 in 7.0 mi Calm Calm - N/A   Clear
9:15 AM 50.0 °F - 5.0 °F 16% 30.31 in 8.0 mi NW 10.4 mph - N/A   Clear
9:35 AM 50.0 °F - 5.0 °F 16% 30.32 in 8.0 mi NW 12.7 mph - N/A   Clear
9:55 AM 50.0 °F - 6.8 °F 17% 30.32 in 7.0 mi WNW 8.1 mph 17.3 mph N/A   Clear
10:15 AM 51.8 °F - 6.8 °F 16% 30.31 in 5.0 mi West 4.6 mph - N/A   Haze
10:35 AM 57.2 °F - 8.6 °F 14% 30.31 in 8.0 mi WNW 3.5 mph - N/A   Clear
11:35 AM 59.0 °F - 8.6 °F 14% 30.29 in 8.0 mi SSW 3.5 mph - N/A   Clear
11:55 AM 59.0 °F - 10.4 °F 15% 30.28 in 7.0 mi NW 9.2 mph - N/A   Clear
12:15 PM 57.2 °F - 8.6 °F 14% 30.28 in 7.0 mi NW 11.5 mph - N/A   Clear
12:35 PM 57.2 °F - 10.4 °F 16% 30.28 in 5.0 mi NW 13.8 mph - N/A   Haze
12:55 PM 55.4 °F - 15.8 °F 21% 30.28 in 5.0 mi NW 11.5 mph - N/A   Haze
1:15 PM 53.6 °F - 15.8 °F 22% 30.28 in 5.0 mi NW 12.7 mph - N/A   Haze
1:35 PM 53.6 °F - 15.8 °F 22% 30.27 in 5.0 mi NW 13.8 mph - N/A   Haze
1:55 PM 50.0 °F - 23.0 °F 35% 30.27 in 4.0 mi NW 15.0 mph - N/A   Haze
2:15 PM 48.2 °F - 23.0 °F 37% 30.28 in 3.0 mi NW 16.1 mph - N/A   Haze
2:35 PM 50.0 °F - 24.8 °F 37% 30.28 in 3.0 mi NW 11.5 mph - N/A   Haze
2:55 PM 51.8 °F - 21.2 °F 30% 30.28 in 4.0 mi SW 5.8 mph - N/A   Haze
3:15 PM 53.6 °F - 17.6 °F 24% 30.28 in 5.0 mi NW 4.6 mph - N/A   Haze
3:35 PM 50.0 °F - 15.8 °F 26% 30.29 in 5.0 mi North 3.5 mph - N/A   Haze
3:55 PM 51.8 °F - 14.0 °F 22% 30.29 in 6.0 mi NW 3.5 mph - N/A   Haze
4:15 PM 50.0 °F - 14.0 °F 24% 30.29 in 6.0 mi Calm Calm - N/A   Haze
4:35 PM 48.2 °F - 15.8 °F 27% 30.29 in 6.0 mi Calm Calm - N/A   Haze
4:55 PM 42.8 °F 40.1 °F 15.8 °F 34% 30.29 in 4.0 mi ESE 4.6 mph - N/A   Haze
5:15 PM 37.4 °F 32.8 °F 17.6 °F 45% 30.30 in 8.0 mi SE 5.8 mph - N/A   Clear
5:35 PM 39.2 °F 37.0 °F 15.8 °F 39% 30.31 in 7.0 mi East 3.5 mph - N/A   Clear
5:55 PM 39.2 °F - 15.8 °F 39% 30.32 in 7.0 mi Calm Calm - N/A   Clear
6:15 PM 35.6 °F - 15.8 °F 44% 30.32 in 8.0 mi Calm Calm - N/A   Clear
6:35 PM 33.8 °F 30.8 °F 15.8 °F 48% 30.33 in 7.0 mi SE 3.5 mph - N/A   Clear
6:55 PM 32.0 °F - 14.0 °F 48% 30.33 in 8.0 mi Calm Calm - N/A   Clear
7:15 PM 32.0 °F - 15.8 °F 51% 30.33 in 7.0 mi Calm Calm - N/A   Clear
7:35 PM 32.0 °F - 15.8 °F 51% 30.34 in 8.0 mi Calm Calm - N/A   Clear
7:55 PM 32.0 °F 28.7 °F 14.0 °F 48% 30.34 in 8.0 mi East 3.5 mph - N/A   Clear
8:15 PM 32.0 °F - 14.0 °F 48% 30.34 in 9.0 mi Calm Calm - N/A   Clear
8:35 PM 30.2 °F - 14.0 °F 51% 30.35 in 8.0 mi Calm Calm - N/A   Clear
8:55 PM 28.4 °F - 14.0 °F 55% 30.35 in 8.0 mi Calm Calm - N/A   Clear
9:15 PM 26.6 °F - 14.0 °F 59% 30.34 in 8.0 mi Calm Calm - N/A   Clear
9:35 PM 26.6 °F - 14.0 °F 59% 30.35 in 8.0 mi Calm Calm - N/A   Clear
9:55 PM 24.8 °F - 14.0 °F 64% 30.34 in 8.0 mi Calm Calm - N/A   Clear
10:15 PM 26.6 °F - 14.0 °F 59% 30.34 in 8.0 mi Calm Calm - N/A   Clear
10:35 PM 26.6 °F - 12.2 °F 55% 30.35 in 9.0 mi Calm Calm - N/A   Clear
10:55 PM 24.8 °F 20.5 °F 12.2 °F 59% 30.35 in 9.0 mi WSW 3.5 mph - N/A   Clear
11:15 PM 26.6 °F 22.6 °F 12.2 °F 55% 30.36 in 8.0 mi NNE 3.5 mph - N/A   Clear
11:35 PM 28.4 °F 24.6 °F 10.4 °F 47% 30.36 in 10.0 mi East 3.5 mph - N/A   Clear
11:55 PM 24.8 °F - 10.4 °F 54% 30.36 in 9.0 mi Calm Calm - N/A   Clear